{"data":{"norad_id":57954,"epoch":"2026-05-25T00:24:41.787648Z","epoch_age_seconds":70794,"freshness":"FRESH","line1":"1 57954U 23148V   26145.01715032  .00001058  00000+0  42446-4 0  9992","line2":"2 57954  53.1614  19.3036 0001185  87.6816 272.4322 15.34389958150255","mean_motion":15.34389958,"eccentricity":0.0001185,"inclination_deg":53.1614,"raan_deg":19.3036,"arg_perigee_deg":87.6816,"mean_anomaly_deg":272.4322,"bstar":4.2446e-5,"rev_number":15025,"period_min":93.848372279298,"perigee_km":461.92244420479,"apogee_km":463.54373041549,"semimajor_km":6840.8700873101,"source":"CELESTRAK","updated_at":"2026-05-25T13:38:18.464094Z"}}